QPF
0.11 0.16 0.20 0.24 0.29 0.33 0.39 0.42 0.45 0.50 0.52 0.48 0.38 0.27 0.17 0.10 0.07 0.05 0.03 0.02 0.01 0.01 0.01 0.01 0.01 0.01 0.01 0.01 0.01 0.01 0.01 0.02 0.02 0.01 0.01 0.01 0.02 0.04 0.04 0.04 0.03 0.03 0.03
0.11 0.20 0.28 0.34 0.39 0.41 0.42 0.40 0.36 0.37 0.36 0.29 0.23 0.17 0.11 0.07 0.04 0.02 0.01 0.01 0.01 0.01 0.01 0.01 0.00 0.00 0.01 0.01 0.01 0.01 0.01 0.01 0.02 0.01 0.01 0.02 0.03 0.05 0.06 0.05 0.03 0.03 0.04
0.16 0.25 0.36 0.40 0.41 0.42 0.43 0.41 0.35 0.29 0.25 0.20 0.14 0.10 0.07 0.05 0.03 0.02 0.01 0.01 0.00 0.00 0.00 0.00 0.00 0.01 0.01 0.01 0.01 0.01 0.01 0.01 0.01 0.01 0.02 0.02 0.04 0.05 0.06 0.06 0.05 0.06 0.04
0.20 0.31 0.45 0.53 0.54 0.50 0.43 0.38 0.30 0.22 0.16 0.12 0.09 0.06 0.04 0.02 0.02 0.01 0.01 0.00 0.00 0.00 0.00 0.00 0.00 0.00 0.00 0.00 0.00 0.00 0.00 0.00 0.01 0.01 0.01 0.02 0.03 0.04 0.05 0.05 0.06 0.08 0.08
0.23 0.39 0.50 0.51 0.48 0.46 0.40 0.32 0.24 0.16 0.11 0.06 0.04 0.03 0.02 0.01 0.01 0.00 0.00 0.00 0.00 0.00 0.00 0.00 0.00 0.00 0.00 0.00 0.00 0.00 0.00 0.00 0.00 0.00 0.01 0.01 0.01 0.02 0.03 0.04 0.05 0.09 0.12
0.18 0.25 0.30 0.36 0.41 0.36 0.32 0.24 0.16 0.12 0.09 0.05 0.02 0.01 0.01 0.00 0.00 0.00 0.00 0.00 0.00 0.00 0.00 0.00 0.00 0.00 0.00 0.00 0.00 0.00 0.00 0.00 0.00 0.01 0.01 0.01 0.01 0.01 0.01 0.02 0.05 0.08 0.12
0.13 0.15 0.19 0.24 0.28 0.24 0.18 0.15 0.11 0.07 0.05 0.03 0.01 0.01 0.00 0.00 0.00 0.00 0.00 0.00 0.00 0.00 0.00 0.00 0.00 0.00 0.00 0.00 0.00 0.00 0.00 0.00 0.00 0.00 0.01 0.01 0.01 0.01 0.01 0.01 0.04 0.07 0.12
0.11 0.13 0.14 0.19 0.21 0.17 0.12 0.10 0.08 0.05 0.03 0.02 0.01 0.00 0.00 0.00 0.00 0.00 0.00 0.00 0.00 0.00 0.00 0.00 0.00 0.00 0.00 0.00 0.00 0.00 0.00 0.00 0.00 0.00 0.01 0.01 0.00 0.00 0.01 0.01 0.03 0.07 0.13
0.08 0.10 0.12 0.13 0.13 0.10 0.08 0.06 0.05 0.04 0.02 0.01 0.01 0.00 0.00 0.00 0.00 0.00 0.00 0.00 0.00 0.00 0.00 0.00 0.00 0.00 0.00 0.00 0.00 0.01 0.01 0.00 0.00 0.00 0.00 0.00 0.00 0.00 0.00 0.01 0.03 0.06 0.12
0.05 0.07 0.10 0.10 0.09 0.07 0.05 0.04 0.04 0.03 0.02 0.01 0.01 0.00 0.00 0.00 0.00 0.00 0.00 0.00 0.00 0.00 0.00 0.00 0.00 0.00 0.00 0.00 0.00 0.00 0.01 0.01 0.00 0.01 0.01 0.01 0.02 0.02 0.01 0.01 0.02 0.04 0.07
0.04 0.06 0.05 0.07 0.07 0.06 0.04 0.04 0.03 0.02 0.02 0.01 0.01 0.00 0.00 0.00 0.00 0.00 0.00 0.00 0.00 0.00 0.00 0.00 0.00 0.00 0.00 0.00 0.00 0.00 0.00 0.00 0.01 0.01 0.01 0.01 0.02 0.02 0.02 0.02 0.02 0.03 0.06
0.04 0.05 0.05 0.05 0.03 0.03 0.04 0.03 0.02 0.02 0.02 0.01 0.01 0.00 0.00 0.00 0.00 0.00 0.00 0.00 0.00 0.00 0.00 0.00 0.00 0.00 0.00 0.00 0.00 0.00 0.00 0.00 0.01 0.01 0.01 0.01 0.01 0.01 0.01 0.01 0.02 0.03 0.05
0.04 0.06 0.06 0.04 0.03 0.03 0.04 0.03 0.02 0.02 0.01 0.01 0.01 0.00 0.00 0.00 0.00 0.00 0.00 0.00 0.00 0.00 0.00 0.00 0.00 0.00 0.00 0.00 0.00 0.00 0.00 0.00 0.01 0.01 0.01 0.01 0.01 0.01 0.01 0.02 0.03 0.03 0.05
0.04 0.05 0.04 0.04 0.03 0.03 0.04 0.03 0.02 0.01 0.01 0.01 0.01 0.00 0.00 0.00 0.00 0.00 0.00 0.00 0.00 0.00 0.00 0.00 0.00 0.00 0.00 0.00 0.00 0.00 0.00 0.00 0.00 0.00 0.01 0.01 0.01 0.01 0.01 0.02 0.03 0.04 0.05
0.04 0.04 0.03 0.03 0.03 0.02 0.03 0.03 0.02 0.01 0.01 0.01 0.01 0.01 0.00 0.00 0.00 0.00 0.00 0.00 0.00 0.00 0.00 0.00 0.00 0.00 0.00 0.00 0.00 0.00 0.00 0.00 0.00 0.00 0.01 0.01 0.01 0.01 0.01 0.02 0.03 0.05 0.07
0.03 0.04 0.03 0.03 0.02 0.02 0.01 0.01 0.00 0.00 0.00 0.00 0.00 0.00 0.00 0.00 0.00 0.00 0.00 0.00 0.00 0.00 0.00 0.00 0.00 0.00 0.00 0.00 0.00 0.00 0.00 0.00 0.01 0.01 0.01 0.01 0.01 0.01 0.01 0.01 0.01 0.03 0.04
0.02 0.03 0.02 0.02 0.01 0.01 0.01 0.01 0.00 0.00 0.00 0.00 0.00 0.00 0.00 0.00 0.00 0.00 0.00 0.00 0.00 0.00 0.00 0.00 0.00 0.00 0.00 0.00 0.00 0.00 0.00 0.00 0.01 0.01 0.02 0.02 0.01 0.01 0.01 0.02 0.01 0.01 0.03
0.02 0.02 0.02 0.02 0.01 0.01 0.01 0.01 0.01 0.00 0.00 0.00 0.00 0.00 0.00 0.00 0.00 0.00 0.00 0.00 0.00 0.00 0.00 0.00 0.00 0.00 0.00 0.00 0.00 0.00 0.00 0.00 0.00 0.01 0.01 0.01 0.01 0.01 0.01 0.01 0.01 0.01 0.02
0.01 0.01 0.01 0.01 0.01 0.01 0.00 0.00 0.00 0.00 0.00 0.00 0.00 0.00 0.00 0.00 0.00 0.00 0.00 0.00 0.00 0.00 0.00 0.00 0.00 0.00 0.00 0.00 0.00 0.00 0.00 0.00 0.00 0.00 0.00 0.00 0.00 0.00 0.01 0.01 0.01 0.01 0.01
0.00 0.00 0.01 0.01 0.01 0.00 0.00 0.00 0.00 0.00 0.00 0.00 0.00 0.00 0.00 0.00 0.00 0.00 0.00 0.00 0.00 0.00 0.00 0.00 0.00 0.00 0.00 0.00 0.00 0.00 0.00 0.00 0.00 0.00 0.00 0.00 0.00 0.00 0.00 0.00 0.00 0.00 0.01
0.00 0.00 0.00 0.00 0.01 0.01 0.00 0.00 0.00 0.00 0.00 0.00 0.00 0.00 0.00 0.00 0.00 0.00 0.00 0.00 0.00 0.00 0.00 0.00 0.00 0.00 0.00 0.00 0.00 0.00 0.00 0.00 0.00 0.00 0.00 0.00 0.00 0.00 0.00 0.00 0.00 0.00 0.00
0.00 0.00 0.00 0.00 0.00 0.00 0.00 0.00 0.00 0.00 0.00 0.00 0.00 0.00 0.00 0.00 0.00 0.00 0.00 0.00 0.00 0.00 0.00 0.00 0.00 0.00 0.00 0.00 0.00 0.00 0.00 0.00 0.00 0.00 0.00 0.00 0.00 0.00 0.00 0.00 0.00 0.00 0.00
0.00 0.00 0.00 0.00 0.00 0.00 0.00 0.00 0.00 0.00 0.00 0.00 0.00 0.00 0.00 0.00 0.00 0.00 0.00 0.00 0.00 0.00 0.00 0.00 0.00 0.00 0.00 0.00 0.00 0.00 0.00 0.00 0.00 0.00 0.00 0.00 0.00 0.00 0.00 0.00 0.00 0.00 0.00
0.00 0.00 0.00 0.00 0.00 0.00 0.00 0.00 0.00 0.00 0.00 0.00 0.00 0.00 0.00 0.00 0.00 0.00 0.00 0.00 0.00 0.00 0.00 0.00 0.00 0.00 0.00 0.00 0.00 0.00 0.00 0.00 0.00 0.00 0.00 0.00 0.00 0.00 0.00 0.00 0.00 0.00 0.00
0.00 0.00 0.00 0.00 0.00 0.00 0.00 0.00 0.00 0.00 0.00 0.00 0.00 0.00 0.00 0.00 0.00 0.00 0.00 0.00 0.00 0.00 0.00 0.00 0.00 0.00 0.00 0.00 0.00 0.00 0.00 0.00 0.00 0.00 0.00 0.00 0.00 0.00 0.00 0.00 0.00 0.00 0.00
0.00 0.00 0.00 0.00 0.00 0.00 0.00 0.00 0.00 0.00 0.00 0.00 0.00 0.00 0.00 0.00 0.00 0.00 0.00 0.00 0.00 0.00 0.00 0.00 0.00 0.00 0.00 0.00 0.00 0.00 0.00 0.00 0.00 0.00 0.00 0.00 0.00 0.00 0.00 0.00 0.00 0.00 0.00
MSLP
1009.12 1008.79 1008.45 1008.12 1007.82 1007.60 1007.48 1007.49 1007.64 1007.91 1008.29 1008.74 1009.20 1009.64 1010.02 1010.32 1010.53 1010.65 1010.73 1010.79 1010.85 1010.95 1011.09 1011.27 1011.47 1011.66 1011.82 1011.90 1011.89 1011.76 1011.53 1011.19 1010.79 1010.34 1009.89 1009.49 1009.16 1008.93 1008.80 1008.76 1008.80 1008.87 1008.92
1009.40 1009.16 1008.92 1008.68 1008.48 1008.33 1008.27 1008.30 1008.44 1008.68 1009.00 1009.37 1009.76 1010.11 1010.41 1010.64 1010.80 1010.89 1010.93 1010.97 1011.00 1011.07 1011.18 1011.33 1011.50 1011.66 1011.80 1011.88 1011.87 1011.76 1011.55 1011.25 1010.87 1010.44 1010.00 1009.59 1009.24 1008.96 1008.77 1008.67 1008.63 1008.63 1008.63
1009.68 1009.55 1009.42 1009.31 1009.22 1009.18 1009.19 1009.27 1009.43 1009.64 1009.90 1010.19 1010.48 1010.74 1010.94 1011.10 1011.19 1011.23 1011.24 1011.25 1011.27 1011.32 1011.41 1011.53 1011.68 1011.82 1011.93 1011.99 1011.98 1011.88 1011.69 1011.41 1011.05 1010.65 1010.22 1009.80 1009.43 1009.11 1008.87 1008.69 1008.58 1008.51 1008.45
1009.88 1009.86 1009.85 1009.87 1009.91 1009.99 1010.10 1010.24 1010.42 1010.63 1010.85 1011.06 1011.26 1011.42 1011.53 1011.60 1011.63 1011.63 1011.62 1011.61 1011.63 1011.68 1011.76 1011.87 1012.00 1012.12 1012.22 1012.27 1012.25 1012.15 1011.96 1011.69 1011.35 1010.96 1010.54 1010.12 1009.72 1009.37 1009.07 1008.84 1008.66 1008.51 1008.39
1009.95 1010.01 1010.11 1010.25 1010.42 1010.61 1010.82 1011.04 1011.27 1011.48 1011.68 1011.84 1011.96 1012.04 1012.07 1012.07 1012.05 1012.02 1011.99 1011.99 1012.02 1012.08 1012.18 1012.30 1012.43 1012.55 1012.63 1012.67 1012.64 1012.53 1012.34 1012.07 1011.73 1011.35 1010.93 1010.50 1010.09 1009.71 1009.36 1009.07 1008.83 1008.63 1008.45
1009.86 1009.98 1010.15 1010.38 1010.65 1010.94 1011.25 1011.55 1011.82 1012.06 1012.26 1012.39 1012.47 1012.49 1012.48 1012.44 1012.39 1012.35 1012.33 1012.35 1012.40 1012.50 1012.63 1012.77 1012.91 1013.03 1013.10 1013.12 1013.08 1012.95 1012.75 1012.47 1012.14 1011.75 1011.33 1010.89 1010.47 1010.06 1009.68 1009.35 1009.05 1008.79 1008.57
1009.63 1009.77 1009.98 1010.26 1010.59 1010.96 1011.34 1011.71 1012.03 1012.31 1012.52 1012.66 1012.72 1012.73 1012.70 1012.66 1012.61 1012.58 1012.59 1012.64 1012.74 1012.88 1013.04 1013.21 1013.36 1013.48 1013.55 1013.56 1013.49 1013.34 1013.12 1012.83 1012.49 1012.09 1011.67 1011.23 1010.80 1010.37 1009.98 1009.61 1009.28 1008.98 1008.71
1009.33 1009.46 1009.67 1009.96 1010.31 1010.71 1011.13 1011.54 1011.91 1012.23 1012.47 1012.64 1012.73 1012.76 1012.75 1012.73 1012.71 1012.72 1012.77 1012.87 1013.01 1013.19 1013.38 1013.57 1013.73 1013.85 1013.91 1013.90 1013.80 1013.63 1013.39 1013.08 1012.73 1012.33 1011.91 1011.47 1011.03 1010.61 1010.20 1009.82 1009.46 1009.13 1008.83
1009.05 1009.14 1009.32 1009.58 1009.92 1010.31 1010.74 1011.17 1011.57 1011.92 1012.21 1012.42 1012.56 1012.65 1012.69 1012.72 1012.76 1012.82 1012.92 1013.06 1013.23 1013.43 1013.64 1013.83 1013.99 1014.10 1014.14 1014.10 1013.98 1013.79 1013.53 1013.21 1012.84 1012.44 1012.03 1011.60 1011.17 1010.76 1010.35 1009.97 1009.60 1009.25 1008.92
1008.83 1008.89 1009.02 1009.24 1009.54 1009.90 1010.30 1010.72 1011.13 1011.51 1011.84 1012.12 1012.33 1012.48 1012.61 1012.71 1012.81 1012.93 1013.07 1013.24 1013.43 1013.64 1013.84 1014.01 1014.15 1014.22 1014.23 1014.17 1014.02 1013.81 1013.54 1013.21 1012.85 1012.47 1012.06 1011.66 1011.25 1010.85 1010.45 1010.07 1009.70 1009.34 1009.00
1008.70 1008.74 1008.85 1009.01 1009.26 1009.57 1009.93 1010.33 1010.74 1011.14 1011.51 1011.84 1012.13 1012.37 1012.58 1012.76 1012.93 1013.10 1013.28 1013.46 1013.65 1013.84 1014.00 1014.14 1014.23 1014.26 1014.23 1014.14 1013.97 1013.75 1013.48 1013.16 1012.82 1012.45 1012.07 1011.69 1011.31 1010.92 1010.55 1010.17 1009.80 1009.44 1009.08
1008.63 1008.70 1008.79 1008.92 1009.12 1009.38 1009.70 1010.06 1010.46 1010.87 1011.28 1011.67 1012.03 1012.36 1012.65 1012.92 1013.15 1013.37 1013.56 1013.74 1013.90 1014.04 1014.15 1014.23 1014.26 1014.25 1014.18 1014.06 1013.88 1013.67 1013.41 1013.12 1012.80 1012.47 1012.12 1011.76 1011.40 1011.04 1010.68 1010.31 1009.95 1009.58 1009.22
1008.57 1008.69 1008.80 1008.93 1009.10 1009.32 1009.60 1009.94 1010.32 1010.74 1011.18 1011.63 1012.06 1012.46 1012.84 1013.17 1013.46 1013.70 1013.90 1014.06 1014.18 1014.26 1014.30 1014.30 1014.27 1014.21 1014.11 1013.97 1013.80 1013.61 1013.38 1013.13 1012.85 1012.56 1012.25 1011.92 1011.59 1011.24 1010.88 1010.52 1010.16 1009.79 1009.42
1008.43 1008.63 1008.79 1008.95 1009.12 1009.33 1009.59 1009.91 1010.29 1010.72 1011.18 1011.67 1012.17 1012.64 1013.08 1013.46 1013.79 1014.05 1014.24 1014.37 1014.43 1014.44 1014.41 1014.35 1014.26 1014.15 1014.03 1013.90 1013.75 1013.59 1013.42 1013.22 1013.00 1012.76 1012.49 1012.19 1011.87 1011.53 1011.17 1010.81 1010.44 1010.06 1009.69
1008.13 1008.43 1008.67 1008.88 1009.08 1009.31 1009.57 1009.89 1010.27 1010.71 1011.21 1011.74 1012.28 1012.80 1013.29 1013.72 1014.07 1014.33 1014.51 1014.59 1014.60 1014.55 1014.46 1014.33 1014.20 1014.07 1013.95 1013.83 1013.73 1013.63 1013.52 1013.39 1013.23 1013.04 1012.81 1012.54 1012.24 1011.90 1011.54 1011.16 1010.78 1010.39 1010.02
1007.62 1008.01 1008.34 1008.62 1008.88 1009.14 1009.43 1009.77 1010.17 1010.63 1011.16 1011.72 1012.30 1012.86 1013.39 1013.84 1014.20 1014.46 1014.61 1014.66 1014.62 1014.52 1014.37 1014.21 1014.05 1013.92 1013.81 1013.74 1013.70 1013.67 1013.64 1013.59 1013.50 1013.38 1013.19 1012.95 1012.65 1012.31 1011.94 1011.55 1011.16 1010.76 1010.38
1006.88 1007.37 1007.78 1008.14 1008.46 1008.78 1009.11 1009.48 1009.91 1010.41 1010.96 1011.55 1012.16 1012.75 1013.29 1013.76 1014.12 1014.37 1014.49 1014.51 1014.43 1014.29 1014.12 1013.94 1013.78 1013.66 1013.60 1013.59 1013.62 1013.67 1013.73 1013.77 1013.76 1013.70 1013.56 1013.35 1013.07 1012.74 1012.36 1011.96 1011.55 1011.15 1010.77
1005.98 1006.53 1007.01 1007.44 1007.83 1008.20 1008.59 1009.00 1009.47 1010.00 1010.57 1011.19 1011.81 1012.42 1012.97 1013.43 1013.79 1014.02 1014.13 1014.12 1014.02 1013.87 1013.68 1013.51 1013.37 1013.29 1013.28 1013.34 1013.45 1013.60 1013.75 1013.87 1013.95 1013.95 1013.87 1013.70 1013.45 1013.13 1012.76 1012.36 1011.95 1011.55 1011.18
1004.98 1005.56 1006.09 1006.57 1007.02 1007.45 1007.89 1008.35 1008.85 1009.41 1010.00 1010.63 1011.26 1011.87 1012.42 1012.87 1013.21 1013.43 1013.52 1013.50 1013.40 1013.24 1013.07 1012.92 1012.83 1012.80 1012.86 1013.00 1013.20 1013.43 1013.67 1013.89 1014.04 1014.12 1014.10 1013.98 1013.77 1013.48 1013.13 1012.75 1012.35 1011.96 1011.60
1003.97 1004.55 1005.10 1005.62 1006.11 1006.58 1007.06 1007.56 1008.10 1008.67 1009.29 1009.92 1010.55 1011.14 1011.67 1012.10 1012.43 1012.63 1012.71 1012.69 1012.60 1012.46 1012.32 1012.22 1012.18 1012.22 1012.35 1012.57 1012.85 1013.18 1013.50 1013.80 1014.04 1014.19 1014.24 1014.18 1014.03 1013.79 1013.48 1013.13 1012.76 1012.39 1012.04
1003.04 1003.59 1004.14 1004.66 1005.17 1005.67 1006.18 1006.71 1007.26 1007.86 1008.47 1009.09 1009.71 1010.28 1010.78 1011.19 1011.49 1011.68 1011.75 1011.74 1011.67 1011.57 1011.48 1011.44 1011.46 1011.58 1011.79 1012.08 1012.45 1012.85 1013.25 1013.63 1013.94 1014.16 1014.29 1014.30 1014.21 1014.04 1013.79 1013.50 1013.17 1012.84 1012.51
1002.24 1002.74 1003.25 1003.76 1004.27 1004.78 1005.30 1005.84 1006.41 1007.00 1007.61 1008.21 1008.79 1009.33 1009.79 1010.17 1010.44 1010.62 1010.70 1010.70 1010.66 1010.61 1010.59 1010.61 1010.72 1010.91 1011.20 1011.57 1012.01 1012.48 1012.95 1013.39 1013.77 1014.06 1014.25 1014.34 1014.33 1014.23 1014.06 1013.84 1013.57 1013.29 1013.00
1001.57 1002.02 1002.48 1002.96 1003.44 1003.95 1004.47 1005.01 1005.57 1006.15 1006.73 1007.31 1007.85 1008.34 1008.76 1009.09 1009.34 1009.50 1009.59 1009.62 1009.62 1009.63 1009.68 1009.79 1009.97 1010.25 1010.62 1011.06 1011.56 1012.09 1012.61 1013.10 1013.53 1013.89 1014.15 1014.31 1014.38 1014.36 1014.27 1014.12 1013.93 1013.70 1013.45
1001.02 1001.39 1001.80 1002.23 1002.69 1003.17 1003.68 1004.21 1004.76 1005.31 1005.87 1006.40 1006.90 1007.34 1007.71 1008.00 1008.22 1008.37 1008.46 1008.52 1008.57 1008.65 1008.78 1008.97 1009.25 1009.61 1010.05 1010.56 1011.12 1011.69 1012.26 1012.78 1013.26 1013.65 1013.96 1014.18 1014.32 1014.38 1014.38 1014.31 1014.19 1014.03 1013.84
1000.50 1000.80 1001.15 1001.54 1001.96 1002.42 1002.91 1003.43 1003.96 1004.50 1005.02 1005.51 1005.96 1006.34 1006.66 1006.91 1007.10 1007.24 1007.34 1007.43 1007.54 1007.69 1007.90 1008.18 1008.55 1009.00 1009.51 1010.08 1010.69 1011.29 1011.88 1012.43 1012.93 1013.35 1013.70 1013.97 1014.16 1014.29 1014.36 1014.37 1014.33 1014.24 1014.10
999.93 1000.18 1000.47 1000.81 1001.21 1001.65 1002.13 1002.64 1003.16 1003.68 1004.17 1004.63 1005.03 1005.37 1005.64 1005.85 1006.02 1006.14 1006.26 1006.38 1006.55 1006.77 1007.06 1007.43 1007.89 1008.41 1009.00 1009.62 1010.26 1010.90 1011.50 1012.06 1012.56 1012.99 1013.36 1013.66 1013.89 1014.07 1014.20 1014.28 1014.32 1014.30 1014.23
Thickness
5676 5677 5678 5680 5683 5685 5685 5684 5683 5682 5681 5679 5677 5675 5674 5674 5674 5674 5677 5676 5676 5676 5676 5676 5674 5674 5676 5678 5678 5677 5677 5676 5675 5681 5686 5688 5685 5686 5689 5690 5691 5690 5689
5662 5661 5662 5663 5665 5667 5668 5668 5668 5667 5666 5665 5663 5662 5662 5662 5663 5664 5666 5667 5667 5666 5666 5665 5664 5665 5664 5666 5666 5667 5668 5666 5666 5666 5672 5676 5677 5679 5681 5682 5685 5686 5685
5650 5649 5648 5648 5648 5650 5651 5651 5651 5651 5650 5648 5649 5648 5649 5650 5651 5654 5656 5656 5656 5656 5655 5654 5653 5654 5653 5654 5654 5656 5659 5661 5660 5660 5663 5666 5669 5671 5672 5674 5676 5676 5678
5642 5640 5637 5635 5634 5635 5636 5636 5635 5635 5635 5635 5635 5636 5637 5640 5641 5643 5645 5645 5645 5643 5642 5643 5643 5642 5641 5642 5644 5644 5646 5648 5650 5653 5654 5656 5657 5659 5661 5662 5665 5666 5668
5637 5634 5630 5628 5626 5625 5624 5623 5622 5622 5624 5624 5624 5625 5627 5629 5631 5632 5634 5634 5633 5632 5631 5631 5629 5627 5624 5626 5630 5631 5633 5635 5639 5641 5642 5643 5643 5644 5646 5649 5652 5656 5658
5633 5629 5626 5624 5621 5618 5616 5615 5614 5613 5614 5614 5615 5616 5617 5619 5616 5619 5623 5624 5623 5622 5621 5621 5621 5619 5616 5615 5614 5614 5615 5618 5620 5622 5626 5625 5625 5628 5631 5636 5640 5641 5644
5629 5625 5622 5619 5616 5612 5611 5608 5607 5606 5605 5605 5607 5608 5607 5605 5605 5608 5612 5615 5614 5612 5611 5612 5614 5610 5609 5611 5609 5607 5606 5603 5601 5604 5608 5607 5610 5613 5615 5621 5625 5628 5630
5628 5624 5619 5616 5613 5609 5606 5604 5602 5601 5600 5599 5600 5600 5599 5597 5596 5599 5602 5605 5605 5602 5602 5602 5601 5599 5596 5597 5601 5601 5599 5597 5595 5595 5594 5594 5596 5596 5600 5607 5612 5618 5622
5627 5623 5618 5615 5611 5607 5604 5600 5599 5597 5595 5594 5594 5594 5593 5589 5588 5590 5593 5597 5596 5594 5593 5591 5592 5590 5582 5584 5590 5589 5587 5586 5584 5581 5579 5580 5580 5582 5585 5595 5600 5606 5609
5625 5622 5618 5614 5610 5606 5602 5599 5596 5594 5592 5591 5589 5589 5588 5585 5581 5583 5586 5594 5591 5590 5586 5584 5577 5576 5572 5572 5578 5577 5574 5572 5573 5575 5573 5573 5575 5576 5576 5580 5585 5590 5593
5624 5620 5616 5613 5609 5605 5600 5597 5594 5592 5589 5588 5585 5584 5582 5579 5576 5577 5580 5589 5589 5587 5586 5582 5574 5566 5564 5563 5563 5563 5558 5556 5563 5565 5566 5565 5566 5566 5567 5568 5570 5574 5578
5621 5617 5614 5610 5608 5604 5599 5595 5592 5589 5585 5583 5581 5580 5578 5575 5573 5571 5572 5575 5577 5580 5578 5575 5567 5560 5557 5555 5555 5550 5549 5550 5555 5554 5553 5552 5552 5552 5553 5555 5557 5561 5564
5618 5614 5611 5608 5605 5602 5597 5594 5590 5587 5587 5585 5582 5581 5579 5575 5568 5565 5566 5567 5568 5572 5569 5560 5557 5555 5552 5552 5547 5546 5546 5547 5545 5543 5541 5540 5540 5540 5541 5544 5548 5551 5556
5614 5611 5608 5606 5603 5600 5597 5594 5592 5590 5589 5586 5584 5582 5579 5575 5573 5570 5569 5566 5562 5565 5564 5557 5552 5551 5549 5546 5545 5545 5543 5537 5534 5533 5531 5531 5531 5532 5533 5534 5536 5540 5544
5612 5609 5607 5605 5602 5598 5595 5593 5592 5591 5590 5585 5585 5584 5580 5576 5571 5566 5570 5569 5567 5564 5561 5561 5560 5557 5553 5549 5544 5539 5535 5532 5529 5526 5524 5523 5522 5522 5522 5523 5524 5527 5530
5608 5606 5605 5603 5600 5597 5593 5588 5578 5580 5576 5574 5574 5577 5575 5569 5561 5558 5556 5554 5553 5551 5555 5559 5556 5553 5549 5545 5540 5536 5531 5525 5521 5518 5516 5514 5513 5513 5513 5514 5515 5516 5518
5607 5605 5604 5603 5600 5596 5593 5590 5583 5573 5568 5566 5566 5565 5564 5558 5555 5552 5550 5548 5547 5545 5553 5556 5552 5548 5544 5540 5536 5532 5526 5520 5514 5511 5508 5506 5505 5505 5504 5504 5505 5506 5507
5605 5602 5600 5599 5598 5596 5593 5591 5588 5583 5576 5571 5561 5557 5555 5552 5549 5547 5545 5543 5549 5547 5555 5554 5549 5545 5541 5537 5532 5527 5522 5517 5512 5507 5503 5499 5497 5497 5496 5495 5496 5494 5497
5604 5602 5598 5598 5596 5595 5593 5591 5589 5586 5582 5577 5570 5558 5550 5546 5542 5541 5540 5548 5557 5557 5556 5552 5547 5542 5538 5533 5527 5521 5517 5512 5506 5502 5498 5493 5491 5490 5488 5487 5487 5484 5486
5602 5599 5596 5595 5594 5592 5591 5590 5588 5585 5583 5580 5574 5569 5557 5551 5551 5548 5545 5550 5554 5556 5555 5552 5547 5541 5536 5530 5524 5518 5515 5509 5503 5499 5494 5489 5486 5484 5482 5480 5480 5480 5480
5603 5598 5590 5591 5592 5590 5589 5587 5586 5584 5582 5579 5576 5573 5565 5561 5560 5560 5559 5556 5555 5555 5554 5551 5548 5542 5534 5527 5523 5516 5511 5507 5500 5494 5489 5484 5481 5478 5476 5474 5473 5473 5473
5602 5600 5592 5591 5590 5588 5586 5585 5584 5581 5580 5577 5574 5570 5560 5561 5564 5564 5563 5561 5559 5556 5554 5550 5547 5543 5536 5530 5522 5515 5510 5505 5498 5491 5485 5480 5475 5472 5470 5468 5466 5465 5464
5600 5598 5594 5591 5589 5585 5582 5582 5581 5579 5577 5575 5573 5571 5564 5561 5561 5562 5562 5562 5560 5557 5554 5549 5545 5542 5537 5529 5521 5514 5509 5503 5495 5488 5481 5476 5471 5466 5463 5460 5457 5456 5455
5598 5597 5595 5592 5589 5587 5583 5580 5579 5577 5575 5573 5571 5570 5568 5564 5562 5561 5561 5560 5559 5556 5553 5548 5545 5541 5535 5528 5520 5513 5507 5499 5491 5483 5475 5471 5465 5460 5456 5452 5450 5447 5446
5595 5594 5594 5592 5589 5587 5584 5581 5578 5576 5573 5571 5569 5568 5567 5565 5563 5562 5561 5559 5557 5555 5551 5547 5544 5539 5533 5526 5519 5512 5502 5493 5484 5478 5470 5465 5459 5453 5449 5445 5442 5439 5437
5592 5593 5592 5591 5589 5587 5585 5582 5579 5576 5573 5571 5568 5567 5565 5564 5563 5562 5560 5559 5557 5554 5550 5547 5543 5538 5531 5524 5516 5506 5496 5487 5478 5470 5465 5459 5454 5448 5443 5439 5435 5432 5430